Weather History for Kelso-Longview, WA

Change the Weather History Date:

Saturday, January 28, 2012

  Actual Average Record
Temperature  
Mean Temperature 39 °F -  
Max Temperature 48 °F 46 °F 57 °F (1998)
Min Temperature 30 °F 35 °F 21 °F (2007)
Degree Days  
Heating Degree Days 26    
Moisture  
Dew Point 31 °F    
Average Humidity 77    
Maximum Humidity 100    
Minimum Humidity 53    
Precipitation  
Precipitation 0.00 in - - ()
Sea Level Pressure  
Sea Level Pressure 30.42 in    
Wind  
Wind Speed 6 mph (SSE)    
Max Wind Speed 15 mph    
Max Gust Speed 20 mph    
Visibility 10 miles    
Events      
Averages and records for this station are not official NWS values.
T = Trace of Precipitation, MM = Missing Value Source: NWS Daily Summary

Daily Weather History Graph

Daily Weather History Graph

Search for Another Location

Airport:

Trip Planner

Search our weather history database for the weather conditions in past years. The results will help you decide how hot, cold, wet, or windy it might be!

Date:

Astronomy

Jan. 28, 2012 Rise Set
Actual Time 7:39 AM PST 5:10 PM PST
Civil Twilight 7:06 AM PST 5:42 PM PST
Nautical Twilight 6:30 AM PST 6:18 PM PST
Astronomical Twilight 5:55 AM PST 6:54 PM PST
Moon 9:41 AM PST (1/28) 11:28 PM PST (1/28)
Length of Visible Light 10h 35m
Length of Day
9h 31m
Waxing Crescent, 29% of the Moon is Illuminated
Jan 28
Waxing Crescent
Jan 30
First Quarter
Feb 7
Full
Feb 14
Last Quarter
Feb 21
New

Hourly Weather History & Observations

Time (PST) Temp. Windchill Dew Point Humidity Pressure Visibility Wind Dir Wind Speed Gust Speed Precip Events Conditions
12:15 AM 32.0 °F 28.7 °F 30.2 °F 93% 30.49 in 10.0 mi East 3.5 mph - N/A   Clear
12:35 AM 30.2 °F - 28.4 °F 93% 30.49 in 10.0 mi Calm Calm - N/A   Scattered Clouds
12:55 AM 30.2 °F - 28.4 °F 93% 30.49 in 10.0 mi Calm Calm - N/A   Scattered Clouds
1:15 AM 30.2 °F - 30.2 °F 100% 30.48 in 10.0 mi Calm Calm - N/A   Mostly Cloudy
1:35 AM 32.0 °F - 30.2 °F 93% 30.48 in 10.0 mi Calm Calm - N/A   Mostly Cloudy
1:55 AM 32.0 °F - 30.2 °F 93% 30.48 in 10.0 mi Calm Calm - N/A   Overcast
2:15 AM 33.8 °F 30.8 °F 30.2 °F 87% 30.49 in 10.0 mi ESE 3.5 mph - N/A   Overcast
2:35 AM 33.8 °F 28.6 °F 30.2 °F 87% 30.49 in 10.0 mi SE 5.8 mph - N/A   Overcast
2:55 AM 33.8 °F 28.6 °F 30.2 °F 87% 30.49 in 10.0 mi SSE 5.8 mph - N/A   Overcast
3:15 AM 33.8 °F 29.6 °F 30.2 °F 87% 30.49 in 10.0 mi ESE 4.6 mph - N/A   Overcast
3:35 AM 33.8 °F 29.6 °F 30.2 °F 87% 30.49 in 10.0 mi SE 4.6 mph - N/A   Overcast
3:55 AM 33.8 °F 28.6 °F 30.2 °F 87% 30.49 in 10.0 mi SSE 5.8 mph - N/A   Mostly Cloudy
4:15 AM 33.8 °F 28.6 °F 30.2 °F 87% 30.48 in 10.0 mi SSE 5.8 mph - N/A   Partly Cloudy
4:35 AM 33.8 °F 27.0 °F 30.2 °F 87% 30.48 in 10.0 mi SSE 8.1 mph - N/A   Clear
4:55 AM 33.8 °F 27.0 °F 30.2 °F 87% 30.48 in 10.0 mi SE 8.1 mph - N/A   Clear
5:15 AM 33.8 °F 27.0 °F 30.2 °F 87% 30.48 in 10.0 mi SSE 8.1 mph - N/A   Clear
5:35 AM 33.8 °F 27.0 °F 30.2 °F 87% 30.47 in 10.0 mi SSE 8.1 mph 16.1 mph N/A   Partly Cloudy
5:55 AM 33.8 °F 27.0 °F 30.2 °F 87% 30.47 in 10.0 mi SSE 8.1 mph - N/A   Partly Cloudy
6:15 AM 33.8 °F 27.7 °F 30.2 °F 87% 30.47 in 10.0 mi SSE 6.9 mph - N/A   Clear
6:35 AM 33.8 °F 27.0 °F 30.2 °F 87% 30.47 in 10.0 mi SSE 8.1 mph - N/A   Clear
6:55 AM 33.8 °F 27.0 °F 30.2 °F 87% 30.47 in 10.0 mi SE 8.1 mph - N/A   Partly Cloudy
7:15 AM 33.8 °F 24.8 °F 30.2 °F 87% 30.47 in 10.0 mi SE 12.7 mph 16.1 mph N/A   Mostly Cloudy
7:35 AM 33.8 °F 26.4 °F 30.2 °F 87% 30.47 in 10.0 mi SSE 9.2 mph - N/A   Mostly Cloudy
7:55 AM 33.8 °F 27.0 °F 30.2 °F 87% 30.47 in 10.0 mi SE 8.1 mph - N/A   Mostly Cloudy
8:15 AM 33.8 °F 28.6 °F 30.2 °F 87% 30.47 in 10.0 mi SSE 5.8 mph - N/A   Partly Cloudy
8:35 AM 33.8 °F 26.4 °F 30.2 °F 87% 30.47 in 10.0 mi SE 9.2 mph - N/A   Scattered Clouds
8:55 AM 33.8 °F 25.8 °F 30.2 °F 87% 30.46 in 10.0 mi SSE 10.4 mph - N/A   Scattered Clouds
9:15 AM 33.8 °F 26.4 °F 30.2 °F 87% 30.46 in 10.0 mi SE 9.2 mph - N/A   Clear
9:35 AM 35.6 °F 28.6 °F 30.2 °F 81% 30.45 in 10.0 mi SSE 9.2 mph - N/A   Clear
9:55 AM 35.6 °F 28.6 °F 30.2 °F 81% 30.44 in 10.0 mi SE 9.2 mph - N/A   Clear
10:15 AM 37.4 °F 30.3 °F 30.2 °F 75% 30.45 in 10.0 mi SE 10.4 mph 17.3 mph N/A   Clear
10:35 AM 37.4 °F 31.4 °F 30.2 °F 75% 30.44 in 10.0 mi SSE 8.1 mph - N/A   Scattered Clouds
10:55 AM 37.4 °F 29.8 °F 30.2 °F 75% 30.44 in 10.0 mi SSE 11.5 mph 19.6 mph N/A   Scattered Clouds
11:15 AM 39.2 °F 31.2 °F 30.2 °F 70% 30.43 in 10.0 mi SSE 13.8 mph 19.6 mph N/A   Mostly Cloudy
11:35 AM 39.2 °F 32.0 °F 30.2 °F 70% 30.42 in 10.0 mi SSE 11.5 mph 18.4 mph N/A   Overcast
11:55 AM 39.2 °F 32.0 °F 32.0 °F 75% 30.42 in 10.0 mi SSE 11.5 mph - N/A   Overcast
12:15 PM 41.0 °F 33.1 °F 32.0 °F 70% 30.41 in 10.0 mi SSE 15.0 mph 18.4 mph N/A   Overcast
12:35 PM 41.0 °F 33.5 °F 33.8 °F 76% 30.40 in 10.0 mi SSE 13.8 mph 19.6 mph N/A   Overcast
12:55 PM 42.8 °F 37.5 °F 33.8 °F 70% 30.38 in 10.0 mi SSE 9.2 mph - N/A   Scattered Clouds
1:15 PM 44.6 °F 39.2 °F 33.8 °F 66% 30.38 in 10.0 mi SSE 10.4 mph - N/A   Clear
1:35 PM 44.6 °F 38.4 °F 33.8 °F 66% 30.37 in 10.0 mi SSE 12.7 mph - N/A   Mostly Cloudy
1:55 PM 44.6 °F 38.8 °F 30.2 °F 57% 30.36 in 10.0 mi SSE 11.5 mph 16.1 mph N/A   Overcast
2:15 PM 46.4 °F 41.1 °F 30.2 °F 53% 30.35 in 10.0 mi SSE 11.5 mph 16.1 mph N/A   Mostly Cloudy
2:35 PM 46.4 °F 41.1 °F 32.0 °F 57% 30.34 in 10.0 mi South 11.5 mph - N/A   Clear
2:55 PM 46.4 °F 42.4 °F 33.8 °F 62% 30.34 in 10.0 mi SSE 8.1 mph - N/A   Clear
3:15 PM 46.4 °F 43.5 °F 32.0 °F 57% 30.33 in 10.0 mi SSE 5.8 mph - N/A   Clear
3:35 PM 48.2 °F - 33.8 °F 58% 30.33 in 10.0 mi SSE 9.2 mph - N/A   Clear
3:55 PM 48.2 °F - 33.8 °F 58% 30.32 in 10.0 mi SSE 9.2 mph - N/A   Clear
4:15 PM 46.4 °F 42.4 °F 33.8 °F 62% 30.32 in 10.0 mi SE 8.1 mph - N/A   Clear
4:35 PM 46.4 °F 41.9 °F 33.8 °F 62% 30.31 in 10.0 mi SSE 9.2 mph - N/A   Clear
4:55 PM 46.4 °F 41.9 °F 33.8 °F 62% 30.30 in 10.0 mi SSE 9.2 mph - N/A   Clear
5:15 PM 46.4 °F 42.4 °F 32.0 °F 57% 30.30 in 10.0 mi SSE 8.1 mph - N/A   Clear
5:35 PM 44.6 °F 40.2 °F 33.8 °F 66% 30.30 in 10.0 mi SSE 8.1 mph - N/A   Clear
5:55 PM 44.6 °F 40.2 °F 32.0 °F 61% 30.29 in 10.0 mi SE 8.1 mph - N/A   Clear
6:15 PM 44.6 °F 40.7 °F 32.0 °F 61% 30.29 in 10.0 mi SSE 6.9 mph - N/A   Clear
6:35 PM 44.6 °F 39.7 °F 32.0 °F 61% 30.29 in 10.0 mi SSE 9.2 mph - N/A   Clear
6:55 PM 44.6 °F 40.2 °F 32.0 °F 61% 30.29 in 10.0 mi SSE 8.1 mph - N/A   Clear
7:15 PM 44.6 °F 38.8 °F 32.0 °F 61% 30.28 in 10.0 mi SSE 11.5 mph - N/A   Clear
7:35 PM 44.6 °F 38.4 °F 32.0 °F 61% 30.27 in 10.0 mi SSE 12.7 mph - N/A   Clear
7:55 PM 42.8 °F 38.0 °F 33.8 °F 70% 30.27 in 10.0 mi SSE 8.1 mph 16.1 mph N/A   Clear
8:15 PM 42.8 °F 37.5 °F 33.8 °F 70% 30.26 in 10.0 mi SSE 9.2 mph - N/A   Clear
8:35 PM 42.8 °F 36.6 °F 33.8 °F 70% 30.24 in 10.0 mi SSE 11.5 mph 16.1 mph N/A   Clear
8:55 PM 42.8 °F 36.2 °F 33.8 °F 70% 30.22 in 10.0 mi SSE 12.7 mph 19.6 mph N/A   Clear
9:15 PM 42.8 °F 36.6 °F 33.8 °F 70% 30.22 in 10.0 mi SSE 11.5 mph 17.3 mph N/A   Clear
9:35 PM 42.8 °F 36.6 °F 32.0 °F 66% 30.23 in 10.0 mi SSE 11.5 mph - N/A   Clear
9:55 PM 42.8 °F 37.0 °F 32.0 °F 66% 30.22 in 10.0 mi SE 10.4 mph - N/A   Partly Cloudy
10:15 PM 42.8 °F 37.0 °F 32.0 °F 66% 30.23 in 10.0 mi SSE 10.4 mph - N/A   Partly Cloudy
10:35 PM 42.8 °F 35.1 °F 32.0 °F 66% 30.19 in 10.0 mi SE 16.1 mph 20.7 mph N/A   Clear
10:55 PM 42.8 °F 34.5 °F 32.0 °F 66% 30.19 in 10.0 mi SSE 18.4 mph 24.2 mph N/A   Clear
11:15 PM 42.8 °F 36.6 °F 32.0 °F 66% 30.21 in 10.0 mi SSE 11.5 mph 17.3 mph N/A   Clear
11:35 PM 42.8 °F 36.2 °F 30.2 °F 61% 30.20 in 10.0 mi SE 12.7 mph - N/A   Clear
11:55 PM 42.8 °F 36.2 °F 30.2 °F 61% 30.19 in 10.0 mi SE 12.7 mph 18.4 mph N/A   Clear